Theta_e
320 320 321 321 321 321 321 321 322 322 322 323 322 323 323 323 322 322 322 322 322 323 323 323 324 324 324 325 325 325 322 304 302 302 301 302 310 326 332 334 337 333 324 305 304 304 301 300 302 300 301 302 299 299 299 303 297 301 293 286 285 285 284 287 288 288 290 291 291 292 290 293 292 291 294 294 293 292 291 292 292 292 293 294 291 295 295 297
320 320 320 321 321 321 321 321 322 322 322 322 322 322 323 322 322 322 322 322 322 322 322 323 323 325 324 324 324 324 313 305 304 302 304 316 330 337 337 338 337 332 319 308 304 299 300 300 299 298 299 299 300 299 301 300 302 295 287 285 289 284 290 292 289 290 290 292 290 290 289 291 294 294 293 294 290 290 293 291 290 294 296 295 292 295 296 298
320 320 320 321 321 321 321 321 321 322 322 322 322 322 322 322 322 322 322 322 322 322 322 323 323 324 324 324 324 321 310 304 298 297 305 330 335 338 336 338 332 329 308 306 304 301 300 299 298 298 296 296 295 298 298 298 301 295 291 287 286 289 290 290 290 292 291 293 294 293 292 290 291 293 293 294 293 289 291 295 292 291 296 297 294 294 295 296
320 319 320 321 321 321 321 321 321 322 322 321 321 321 321 321 322 322 322 322 322 322 322 322 323 323 322 323 324 314 304 298 294 300 303 326 336 339 339 338 333 319 305 304 303 299 298 299 297 298 296 297 292 298 298 298 298 294 293 289 291 290 291 294 293 294 293 292 293 292 289 289 290 290 292 290 293 295 296 296 296 296 296 297 295 293 294 296
320 319 319 320 321 321 321 321 322 322 322 321 322 321 321 321 321 322 322 322 322 322 322 322 322 323 323 323 320 307 300 292 296 299 301 329 336 337 339 338 329 304 305 301 301 298 298 297 297 296 295 292 292 296 295 295 296 294 296 296 294 290 291 295 293 292 292 290 291 289 290 295 292 290 290 292 291 295 299 294 294 297 298 296 294 293 293 295
320 319 320 320 321 321 321 321 322 321 321 322 322 322 322 322 322 322 322 322 322 322 323 323 322 322 323 323 309 302 297 288 299 304 328 336 336 338 337 333 321 302 303 300 299 298 301 299 297 296 293 292 292 294 291 296 297 293 293 294 296 294 295 293 292 291 291 291 289 291 294 291 292 293 288 291 294 299 303 298 294 295 296 296 294 292 292 294
320 319 320 321 321 321 321 322 322 321 321 321 322 322 322 322 322 322 322 322 322 322 323 322 322 323 323 317 302 298 297 295 295 305 332 335 336 336 333 330 321 306 303 301 299 301 295 295 297 292 290 291 290 292 292 294 296 294 294 290 294 295 296 297 297 291 289 291 293 292 290 292 293 293 289 291 296 299 302 300 296 293 292 292 293 293 295 295
321 320 319 320 321 321 321 321 321 321 321 322 322 322 322 322 322 322 322 322 321 322 322 322 322 322 321 301 302 294 296 297 300 303 330 332 325 324 317 308 308 304 303 301 298 297 295 295 296 292 293 293 290 293 292 293 294 294 294 293 294 294 295 295 293 291 291 292 294 291 293 296 294 293 290 293 296 298 299 299 296 295 292 291 292 294 294 294
321 320 319 320 321 321 320 321 321 321 321 322 322 322 322 322 322 322 322 322 322 322 322 322 321 322 320 300 295 294 293 299 300 302 315 314 310 309 308 309 305 305 301 298 298 297 299 295 295 295 293 291 291 292 291 292 291 294 297 294 291 292 293 293 291 290 290 292 290 292 293 295 293 291 291 297 299 300 300 297 297 292 292 292 293 294 293 294
320 321 320 321 322 321 320 320 320 321 321 321 321 322 321 322 322 322 322 322 322 322 321 322 321 321 304 297 295 292 298 300 304 311 309 309 307 306 304 302 304 300 301 299 296 296 297 293 298 296 294 294 292 293 289 291 291 290 292 291 293 294 292 292 291 290 290 289 287 292 293 295 291 292 293 295 297 296 294 294 292 291 292 293 292 293 292 293
320 320 320 320 321 320 320 320 320 320 320 321 321 321 321 321 322 322 322 321 322 321 322 320 322 313 300 298 294 293 301 306 305 308 308 307 306 305 305 303 304 301 298 295 297 297 296 293 296 295 298 293 292 291 291 292 291 290 291 290 291 290 290 289 289 290 289 293 288 293 293 293 288 289 293 298 297 294 292 294 293 290 292 294 293 292 292 292
320 320 320 319 319 319 320 320 320 320 320 320 320 320 321 321 322 321 321 321 321 321 321 320 320 316 301 296 293 297 303 305 305 305 306 306 303 302 301 302 304 303 300 296 295 297 297 297 297 297 292 294 290 291 289 289 292 291 290 291 291 289 292 293 291 291 289 290 288 290 289 289 289 288 296 298 296 293 291 293 294 293 294 294 294 293 292 293
320 321 321 320 318 319 320 320 319 319 320 320 320 320 321 321 321 321 320 320 321 321 321 321 316 310 298 292 296 300 302 301 304 303 304 302 301 300 299 298 303 299 300 298 297 297 297 297 299 296 294 295 289 291 291 292 290 290 289 287 290 289 289 291 289 286 288 289 287 290 285 283 290 294 296 297 293 290 290 292 294 295 295 295 294 293 293 293
320 321 321 319 318 319 320 319 319 319 320 320 320 320 321 321 321 320 320 320 321 322 322 321 310 302 293 291 295 304 305 300 303 305 303 303 303 302 303 302 301 300 301 300 297 298 297 296 298 296 294 295 292 294 294 287 287 290 287 287 285 284 287 290 289 286 288 288 289 289 286 288 292 293 296 295 292 291 292 293 293 294 294 295 295 294 294 294
321 320 320 319 318 318 319 319 319 319 320 320 320 320 320 320 321 321 320 320 320 321 320 316 306 296 290 295 299 304 318 302 304 302 303 303 300 300 302 302 300 299 299 300 302 298 297 297 298 296 293 293 294 293 288 282 281 282 285 282 279 284 286 291 289 289 290 287 287 289 284 288 292 294 295 293 291 290 290 291 292 293 293 294 294 294 295 296
321 320 320 319 318 319 319 319 319 319 320 320 320 319 319 319 320 321 321 320 320 321 316 305 303 294 290 291 300 312 304 303 301 301 301 304 302 302 299 299 299 299 299 298 300 298 296 297 295 291 293 293 292 286 281 284 284 279 284 282 285 281 284 286 291 287 289 287 288 290 288 284 286 291 293 292 289 289 289 290 291 293 294 293 293 294 295 296
321 320 320 318 319 319 319 319 319 319 319 319 319 320 318 320 318 321 321 321 318 317 307 298 302 299 292 296 303 297 297 300 303 303 302 302 302 300 300 298 298 297 297 297 297 299 295 296 292 292 287 290 284 284 284 279 282 283 281 283 282 284 284 283 286 290 285 288 285 287 285 288 292 291 293 292 293 290 289 291 292 293 295 295 295 294 294 295
321 321 320 320 321 319 320 319 319 319 319 319 319 317 313 320 320 317 315 314 314 310 306 306 300 296 296 299 295 296 300 300 302 299 300 300 300 298 297 296 294 294 296 294 297 294 294 292 288 289 286 288 287 285 283 281 283 283 281 280 282 280 282 285 283 284 288 286 285 283 285 287 290 291 292 294 293 292 293 294 294 294 295 295 295 295 295 296
321 321 321 321 321 320 320 319 319 319 319 320 318 315 318 320 304 304 307 305 299 296 294 295 292 290 290 296 296 295 301 303 301 302 302 303 300 297 297 295 295 297 292 291 291 293 289 289 288 286 285 285 287 288 287 288 287 286 285 284 281 282 283 282 287 288 288 289 287 286 287 289 290 290 291 292 293 292 293 294 294 294 294 294 295 295 296 296
322 321 321 321 320 320 320 319 319 319 319 315 303 301 299 294 291 294 294 299 298 295 295 295 299 293 295 296 296 299 303 302 302 299 301 302 302 299 296 294 293 291 289 289 290 290 292 286 285 285 288 290 289 289 290 291 287 284 284 283 284 284 285 285 287 288 286 285 286 288 289 289 290 290 291 292 293 292 291 292 294 294 294 294 295 296 296 296
322 321 320 320 320 320 319 319 319 319 320 306 298 292 291 291 289 288 291 293 298 297 297 296 298 298 299 297 297 300 299 296 298 299 301 303 298 300 296 294 291 290 288 288 290 291 290 285 284 289 291 291 290 288 287 286 284 285 284 281 284 282 284 288 289 289 288 285 283 285 288 289 290 291 292 293 292 292 293 293 293 294 295 295 295 296 297 298
321 321 320 319 320 319 319 319 319 319 315 299 298 294 292 293 295 292 291 290 293 294 293 297 295 296 298 298 299 298 298 295 295 299 302 302 299 297 293 293 286 291 287 287 288 286 285 284 288 290 291 288 285 287 286 285 286 284 284 283 282 284 285 289 288 290 290 285 285 285 286 288 289 290 292 292 293 294 295 293 294 295 295 296 296 296 296 297
320 321 321 320 319 319 319 319 318 317 300 301 297 294 295 298 295 295 298 291 291 295 294 293 293 293 295 296 296 298 295 294 294 295 299 300 295 295 291 291 289 286 287 288 288 285 283 284 289 291 288 287 287 287 285 284 283 282 282 280 283 285 283 284 284 283 281 285 284 284 285 287 289 291 292 293 293 293 294 294 294 295 295 296 296 294 295 296
321 321 321 320 320 319 320 319 318 307 300 297 298 298 298 295 295 299 296 289 289 293 295 294 294 292 291 294 297 298 294 291 293 293 298 299 295 292 292 290 287 285 288 288 289 288 288 285 286 288 287 287 287 286 285 283 286 285 285 283 284 285 286 285 285 283 284 285 282 285 285 287 288 287 287 289 289 290 292 293 293 294 295 296 295 295 296 295
320 320 320 320 319 319 319 319 305 303 299 300 298 299 295 295 295 296 294 290 288 289 296 294 294 293 294 299 297 295 292 292 291 293 297 298 291 291 290 289 288 288 287 286 286 285 286 290 287 286 285 285 285 284 285 286 284 284 283 286 287 288 286 285 285 283 279 280 278 281 281 283 283 284 284 286 284 286 288 290 292 293 292 291 293 294 296 295
321 320 320 319 319 319 320 308 304 301 303 301 302 298 295 295 296 296 292 286 284 288 293 291 298 296 299 295 294 292 293 291 293 294 298 296 298 293 290 289 289 286 285 285 287 285 287 287 288 288 285 283 283 283 286 286 285 282 283 286 288 287 285 284 283 282 277 276 282 281 278 280 281 283 284 284 284 289 292 290 292 291 291 291 292 294 294 294
321 320 320 319 319 319 310 302 305 303 302 302 299 297 294 296 297 298 290 285 284 290 289 293 295 293 299 294 293 292 287 286 295 294 295 298 296 297 289 286 287 287 285 285 283 283 285 285 285 285 284 284 282 283 285 286 284 282 281 283 285 283 282 282 282 282 281 279 281 283 281 278 282 282 286 287 288 290 290 291 290 291 292 292 293 294 294 295
320 320 319 320 320 318 310 306 305 304 305 304 301 298 297 296 296 296 290 280 281 293 290 290 294 299 298 294 290 290 289 289 289 293 293 294 295 293 291 284 288 285 286 286 282 284 286 284 284 284 284 281 284 287 284 287 285 282 283 283 283 282 282 281 281 279 278 279 280 280 282 278 279 283 284 283 284 287 288 290 290 291 290 291 292 293 293 293
319 319 318 319 320 320 314 311 307 305 305 302 301 301 299 297 295 291 287 280 292 287 301 291 301 294 291 294 292 286 289 288 288 289 292 294 295 291 288 287 285 283 284 287 286 285 284 287 284 286 284 283 285 283 283 287 284 284 283 282 282 281 280 281 280 281 278 276 279 278 281 276 281 287 285 281 283 285 286 288 289 288 289 290 291 292 292 292
319 319 319 318 318 317 313 312 309 309 304 303 301 300 301 299 294 289 284 280 294 288 291 293 292 288 289 289 288 288 290 287 287 288 290 291 293 292 291 288 286 287 287 285 284 286 286 288 286 285 285 287 284 283 283 287 286 284 284 286 280 280 279 278 277 277 274 274 279 280 281 282 277 283 282 283 283 283 285 286 287 287 288 291 290 290 293 292
315 318 318 318 315 315 314 310 311 307 306 304 303 304 302 299 290 286 282 289 294 293 291 290 288 290 289 288 286 287 288 284 288 289 288 290 291 288 288 289 287 281 278 280 284 286 286 286 287 285 287 286 284 285 283 283 284 285 280 281 281 282 276 275 268 275 274 272 280 280 282 282 274 279 280 279 281 282 285 288 289 289 290 294 293 292 292 291
312 315 318 317 318 318 312 311 310 307 306 306 307 306 302 291 290 284 286 296 289 289 286 286 286 285 286 285 285 285 286 287 285 288 286 284 284 285 285 284 283 281 280 278 284 280 281 284 284 287 289 289 285 285 281 283 284 284 282 282 278 271 273 268 270 270 270 275 276 279 281 278 279 286 285 288 292 293 291 288 290 290 291 292 292 291 290 289
311 313 316 317 317 315 316 311 308 307 307 307 307 304 294 288 284 290 288 291 290 290 288 289 288 288 285 287 286 284 286 286 287 287 285 284 284 285 282 284 284 287 284 281 278 280 283 281 282 284 287 287 287 283 280 283 282 282 281 278 273 271 269 267 264 264 267 275 277 278 280 279 285 285 286 291 293 292 289 287 288 288 289 290 289 289 289 289
310 313 315 315 318 318 313 310 310 308 308 308 306 298 291 285 285 294 291 292 294 290 290 289 287 285 286 288 285 284 288 286 286 286 287 284 283 281 283 284 283 285 286 280 282 278 276 282 282 284 284 285 288 288 288 284 281 283 282 284 281 277 274 273 271 277 279 279 276 277 276 273 275 282 283 286 288 287 286 285 284 285 286 287 286 285 285 286
310 312 316 316 316 318 310 311 309 310 311 308 300 294 287 286 289 285 286 286 288 290 292 292 289 286 287 286 284 285 289 289 285 284 284 284 282 280 281 283 285 284 283 281 281 276 281 283 283 285 286 287 286 289 283 281 281 281 281 281 278 280 283 280 282 281 281 281 274 273 276 277 284 286 287 289 288 289 290 291 287 285 283 282 285 286 288 288
312 314 316 313 313 316 312 311 310 312 310 304 296 289 288 290 283 286 289 291 291 291 290 290 285 286 283 283 283 286 290 288 287 285 284 283 282 282 281 281 284 288 285 284 284 280 282 278 283 286 284 286 285 286 287 287 277 281 283 280 284 285 285 282 282 283 280 278 278 284 280 283 285 288 294 291 289 289 286 284 284 287 285 282 284 285 288 289
303 311 310 312 312 314 313 311 311 311 308 301 294 289 294 291 290 287 295 293 292 290 290 289 289 290 286 284 284 284 288 289 286 285 283 285 284 284 282 284 285 287 290 291 283 287 285 285 287 284 285 286 282 285 286 286 286 283 280 284 286 286 285 283 277 277 279 276 278 285 281 283 282 278 283 282 286 283 281 284 284 283 282 283 284 286 288 289
300 305 310 311 313 313 312 311 312 309 304 298 291 295 291 291 293 295 292 291 293 293 289 288 290 293 287 287 286 285 288 287 288 287 284 288 287 289 284 285 288 288 291 290 287 286 288 281 287 288 287 286 285 287 286 287 286 287 286 288 286 281 279 282 277 272 274 274 277 280 283 283 285 285 289 290 290 291 285 283 283 286 286 285 285 285 287 286
302 305 300 305 311 312 310 312 311 305 299 293 291 292 296 296 292 291 293 293 293 291 290 289 290 290 290 287 287 287 287 286 289 285 287 289 286 291 288 289 291 289 288 289 287 284 287 283 285 291 288 287 284 286 282 285 285 285 288 285 285 284 283 280 281 275 278 276 278 278 283 280 287 287 289 289 291 292 287 287 289 289 289 286 288 288 288 288
301 300 296 305 310 311 311 312 306 301 295 289 293 293 293 289 292 291 292 296 292 292 288 288 289 289 290 290 287 288 285 287 287 288 289 289 291 297 291 294 289 289 287 289 288 288 284 287 280 286 287 287 282 285 285 287 283 283 282 280 283 281 283 283 281 281 280 278 278 277 276 283 287 289 290 291 292 292 287 286 287 288 287 288 288 288 287 287
301 298 298 309 311 312 312 306 299 294 293 292 295 295 294 294 293 293 295 296 295 298 294 289 288 288 288 288 289 289 287 287 285 287 288 288 290 287 290 292 292 291 290 289 287 287 284 284 282 285 286 285 287 287 288 287 287 285 284 281 285 281 279 279 278 286 282 280 277 278 276 283 289 292 294 293 293 289 286 284 286 288 288 287 286 286 287 286
300 290 296 309 311 311 305 296 295 296 292 292 293 296 294 302 295 296 295 296 295 293 295 293 289 290 288 289 289 287 288 285 286 285 286 289 290 292 290 295 293 291 290 284 286 288 289 284 284 283 285 286 290 292 288 287 286 284 286 283 285 284 284 281 277 280 284 283 284 282 279 280 292 292 292 293 294 294 287 287 288 286 285 285 285 285 285 286
297 293 304 308 311 309 302 294 296 294 292 295 298 297 296 294 293 292 292 292 292 294 291 291 291 290 290 292 289 288 290 286 287 287 286 286 290 295 294 295 293 292 292 286 289 286 293 281 279 284 286 287 289 290 289 285 286 285 285 284 284 283 285 284 283 284 281 282 281 281 278 282 290 293 294 293 291 288 285 284 284 285 284 284 284 284 284 284
297 297 300 308 310 307 299 288 288 291 293 296 296 295 296 293 292 292 292 291 291 289 290 289 290 294 291 291 289 289 288 285 288 290 288 288 288 291 292 292 293 290 292 286 288 288 283 283 285 281 282 282 283 285 287 285 285 283 284 287 287 286 285 286 285 285 280 281 282 279 274 281 290 290 291 289 287 285 283 283 284 282 283 283 283 283 283 283
292 295 297 301 307 303 294 297 293 291 292 292 293 292 294 294 294 295 295 291 292 291 291 288 292 290 290 290 289 290 289 290 286 288 287 284 287 285 286 288 292 290 291 291 294 291 286 284 284 278 276 275 274 276 277 278 280 281 283 285 285 285 285 282 278 280 277 282 283 279 279 286 290 289 287 283 284 284 283 282 283 282 282 282 282 282 282 282
289 279 284 294 301 299 298 300 296 293 290 289 290 292 294 291 293 291 294 293 296 291 292 289 288 290 287 288 288 289 289 289 288 285 286 284 284 285 286 286 289 289 291 292 288 288 285 284 285 285 282 280 282 284 286 286 285 283 283 282 284 285 283 283 282 280 278 282 281 282 283 284 285 286 279 279 280 282 281 281 281 281 281 282 282 281 282 281
288 283 282 278 290 293 293 297 294 295 289 294 287 291 289 291 290 290 293 287 289 293 289 291 290 288 286 288 287 288 288 287 288 288 286 288 286 286 285 285 286 287 292 289 289 285 284 283 285 285 285 285 286 286 287 287 284 285 285 285 286 285 284 283 281 279 285 281 277 285 285 283 285 284 279 278 278 280 282 280 280 281 281 281 281 281 283 281
279 280 285 288 287 282 286 288 294 293 293 292 288 291 288 287 287 286 288 289 288 288 286 284 289 290 290 288 286 284 286 286 285 285 288 284 283 282 283 282 282 286 286 283 284 285 283 282 285 286 284 286 286 285 286 285 285 285 285 285 284 285 284 281 282 284 284 279 278 283 285 283 283 277 280 279 279 278 281 280 280 281 281 280 280 280 279 280
284 283 284 287 283 286 286 286 286 289 290 292 289 289 286 286 285 287 285 283 287 285 290 283 286 288 288 287 286 285 287 282 282 287 283 280 279 280 279 282 284 283 282 281 282 283 284 280 284 284 282 283 283 284 283 283 284 284 284 284 284 283 283 283 283 284 284 283 285 284 284 285 277 277 277 280 280 280 281 282 281 280 279 279 279 279 279 279
280 283 279 286 285 284 284 282 283 285 285 290 287 289 288 286 284 286 286 285 282 284 286 286 286 287 285 285 286 285 286 288 286 283 282 280 280 283 281 284 281 280 281 279 282 282 285 278 286 281 280 280 283 284 283 282 282 280 282 283 282 282 282 283 283 283 284 282 284 284 283 280 277 279 277 281 281 280 280 279 280 280 279 279 279 279 280 279
285 286 287 283 281 281 281 281 282 282 283 286 285 287 290 289 288 288 287 290 287 285 285 285 286 286 283 283 285 286 285 282 282 283 284 282 280 283 279 279 282 277 280 279 282 281 282 278 283 280 276 276 281 280 281 281 280 278 277 278 279 279 277 279 279 280 279 278 280 278 278 276 277 279 280 280 280 278 277 278 279 280 280 279 279 279 280 280
282 282 287 286 279 283 279 280 278 280 279 284 285 285 285 284 281 284 284 288 285 286 285 284 284 284 283 284 283 284 283 283 283 285 286 285 285 283 283 283 284 281 280 279 284 280 282 279 277 277 274 273 279 279 278 276 275 272 273 277 278 278 280 280 279 276 277 279 277 277 276 275 276 279 276 277 278 278 278 278 279 280 281 279 279 279 280 280
Wind_Speed
13 13 13 14 14 14 14 14 14 15 15 15 14 14 14 13 13 13 12 12 12 12 12 12 12 13 12 12 11 10 8 2 2 1 1 9 7 5 4 6 11 10 6 5 4 5 1 1 2 2 3 1 2 1 1 1 1 1 2 3 3 5 3 6 6 9 1 1 3 3 1 1 6 3 1 0 1 2 4 4 5 5 8 6 2 0 1 3
12 13 13 13 14 14 14 15 15 14 15 15 15 14 14 13 14 14 13 13 12 12 13 12 13 12 13 12 9 9 4 1 1 0 12 4 1 5 4 7 10 10 10 5 6 3 5 1 0 3 3 1 2 0 1 1 0 3 1 2 9 5 8 8 5 7 1 7 4 3 2 2 8 1 2 2 5 4 8 4 2 7 11 8 5 1 4 6
12 13 13 13 14 14 14 16 15 15 14 15 15 14 14 14 14 13 14 13 13 13 13 13 13 14 13 12 10 5 3 2 1 2 2 8 2 2 4 6 10 8 4 3 4 7 4 7 6 4 3 1 5 1 1 0 2 3 5 5 7 8 5 5 4 6 9 2 6 7 4 1 4 0 1 2 7 5 10 12 1 6 13 10 7 3 4 6
12 12 13 13 14 14 14 16 16 15 14 15 14 14 14 14 14 14 14 14 13 12 13 13 14 13 13 13 10 3 0 1 1 0 2 5 3 4 5 8 9 6 5 7 4 4 4 8 4 4 1 0 3 1 1 3 2 2 2 4 5 3 2 6 10 10 8 1 3 4 2 4 6 5 1 1 6 11 14 10 10 12 13 12 9 5 5 7
12 13 13 14 15 15 14 15 16 16 15 15 14 14 14 14 13 12 12 13 13 13 13 13 13 13 13 12 11 0 4 5 1 1 3 2 3 5 5 8 8 3 4 8 9 5 6 4 3 3 2 2 1 1 3 1 2 3 9 6 4 1 3 6 7 6 4 3 4 3 5 8 1 0 4 4 6 12 12 4 9 11 10 8 8 6 4 7
13 14 14 14 15 15 15 16 16 16 15 15 14 15 14 14 13 13 13 13 13 13 13 13 13 13 13 11 1 0 4 3 1 1 1 4 5 7 8 9 9 7 7 4 3 2 5 2 4 1 0 1 3 5 2 1 2 5 3 5 6 6 7 1 3 5 5 1 3 3 5 4 1 7 3 6 11 16 20 7 7 8 8 8 1 5 6 8
10 15 14 14 14 16 17 16 17 17 16 15 15 16 16 15 15 14 14 13 13 13 13 13 12 13 14 3 0 2 3 6 2 5 5 6 7 8 9 9 7 4 4 4 2 3 1 3 1 2 3 1 3 4 5 1 0 3 8 0 7 5 11 8 5 4 3 4 6 4 5 8 4 10 1 6 13 20 22 11 8 6 5 3 5 7 10 13
8 13 14 14 15 16 16 17 18 17 16 16 17 17 16 16 15 15 14 13 13 12 12 11 11 11 10 1 1 1 1 5 10 2 5 9 8 9 10 5 5 4 4 5 6 4 4 5 6 3 1 5 3 6 1 1 1 5 8 4 6 1 7 6 5 5 6 9 7 4 7 18 7 7 3 12 14 18 19 13 9 8 7 7 8 11 10 10
9 11 13 14 13 14 17 17 18 18 17 18 17 17 17 16 16 15 14 14 13 12 11 10 10 10 4 1 2 3 5 6 5 4 6 8 7 7 7 3 2 6 3 3 2 6 6 6 2 5 4 1 2 2 2 3 8 7 13 2 4 5 6 6 5 5 6 6 3 2 14 17 7 5 11 23 21 22 14 10 12 6 7 10 11 13 10 11
10 11 14 14 13 14 17 18 18 18 18 18 18 18 17 16 16 15 15 13 12 11 10 9 8 8 3 2 1 4 6 5 1 4 7 9 8 7 3 3 6 5 4 2 4 5 6 5 8 5 3 1 4 4 2 5 6 3 3 4 7 9 7 3 5 5 5 5 5 7 11 16 1 3 13 7 17 6 5 10 7 4 9 11 8 9 10 11
11 14 15 15 16 16 18 18 18 18 19 20 20 19 18 17 17 16 15 13 11 10 9 8 5 5 0 1 3 9 3 5 0 4 7 8 9 8 7 6 6 5 4 2 5 7 4 6 3 3 1 5 3 3 2 4 1 2 1 6 9 7 8 6 5 10 1 8 10 10 13 10 4 2 15 22 6 1 6 11 10 6 9 12 10 9 8 9
9 13 14 16 16 17 18 19 18 19 20 21 21 21 20 19 18 17 15 13 11 9 7 7 3 1 1 2 5 9 2 1 3 3 5 6 4 5 4 7 6 6 8 5 5 4 5 3 6 3 4 1 2 0 3 4 0 1 2 6 9 6 13 4 6 6 8 6 5 7 2 8 5 8 21 18 6 1 5 11 14 11 12 11 12 9 8 12
9 11 11 14 16 16 18 18 19 20 21 22 23 23 22 22 20 19 16 12 9 7 5 4 5 1 1 4 10 5 1 2 5 6 4 3 5 4 2 3 6 5 6 4 1 4 6 7 3 3 3 2 1 2 1 2 1 2 0 1 11 8 11 6 3 4 5 4 7 6 8 6 12 18 19 14 5 4 5 10 13 11 11 11 9 9 10 10
10 10 9 15 14 15 17 18 18 20 21 22 24 24 23 23 21 19 14 11 9 5 1 5 2 2 1 6 6 1 0 4 6 5 3 1 3 1 3 4 3 2 1 2 1 2 5 1 4 2 1 3 4 2 1 4 2 4 3 2 5 6 11 1 1 3 3 3 9 3 9 9 13 13 20 9 2 6 8 11 11 11 10 10 11 10 11 12
10 8 7 13 13 14 15 17 18 20 22 23 24 24 24 23 19 14 8 7 7 8 7 6 1 2 1 8 3 5 5 2 2 4 6 6 4 1 0 1 4 3 2 3 3 1 4 5 4 1 2 0 1 3 7 2 3 2 4 6 2 6 8 11 3 4 9 1 1 5 9 14 13 16 13 8 2 1 6 9 11 12 11 10 10 11 12 15
7 8 8 11 13 14 14 14 17 19 21 24 24 22 18 16 11 6 2 5 6 10 6 1 1 3 2 6 1 4 2 2 4 1 1 3 6 3 3 4 2 3 1 2 3 3 2 2 1 3 1 1 2 1 3 5 5 3 5 6 11 3 7 10 7 2 7 1 2 10 12 4 8 14 11 11 5 4 6 9 9 14 15 11 11 11 12 16
7 9 6 11 12 13 14 15 16 19 20 22 23 19 12 7 7 9 7 6 5 3 1 1 1 0 1 3 0 3 5 2 2 2 2 1 3 6 6 4 1 3 4 4 3 3 3 1 1 1 3 2 2 3 3 2 8 7 1 8 3 8 5 7 8 6 1 6 4 6 7 13 15 8 11 10 11 9 7 13 13 14 15 16 13 12 14 16
7 8 8 9 9 12 13 15 17 17 20 22 20 15 7 2 4 6 8 6 1 2 1 1 2 1 9 3 4 5 1 2 3 3 4 2 4 5 5 3 1 5 3 2 2 4 2 2 4 5 1 0 2 3 4 11 10 8 4 7 8 3 7 13 4 4 9 2 5 2 11 18 17 14 13 17 9 11 19 17 15 17 16 16 15 15 17 17
9 7 7 9 8 10 10 13 16 17 20 23 16 9 2 1 2 1 3 0 1 1 0 1 3 4 5 4 5 5 1 1 3 2 0 3 2 4 5 4 5 6 1 2 2 3 2 4 4 2 6 6 9 11 13 17 8 13 8 7 6 9 8 7 11 7 5 18 11 11 18 18 14 15 13 13 13 10 18 20 16 16 14 15 16 17 16 17
8 7 9 9 9 9 12 14 16 18 19 13 8 4 1 2 2 1 3 2 4 5 2 5 7 2 6 6 1 1 1 2 0 4 1 2 5 3 3 2 3 4 5 4 1 3 2 6 7 9 12 13 10 12 17 15 3 4 1 4 11 11 13 6 12 9 5 8 9 19 22 20 16 14 13 13 13 12 12 18 21 17 14 13 16 19 20 20
8 11 12 11 11 8 12 14 15 16 17 6 3 3 2 0 2 5 5 9 8 6 5 6 12 7 9 3 0 0 0 1 2 0 1 1 2 7 2 2 1 3 3 4 6 1 3 5 6 13 14 13 10 4 4 6 5 5 6 6 12 4 16 11 13 7 1 1 3 6 18 20 18 15 16 14 13 20 20 17 19 21 18 15 17 22 24 20
8 7 9 10 9 11 12 12 14 15 10 1 5 4 1 0 1 2 1 7 6 7 8 13 1 6 7 4 2 3 4 3 1 1 1 1 3 4 2 4 4 9 1 2 1 2 3 8 13 16 10 1 3 0 1 5 7 7 7 6 9 9 11 18 13 13 9 2 12 8 18 18 12 14 16 16 19 19 15 8 13 18 22 18 17 19 16 17
9 8 7 8 9 9 11 12 13 9 4 5 3 2 0 0 0 1 1 3 8 4 3 7 6 9 11 1 1 4 3 8 10 2 6 4 2 4 5 4 5 2 2 5 10 4 5 5 17 15 3 5 4 1 4 4 4 5 5 4 12 7 3 12 2 2 1 2 9 8 20 21 11 18 22 21 17 11 11 14 14 17 22 25 21 7 11 16
10 9 7 7 6 8 10 12 11 3 3 2 3 1 1 2 1 0 0 4 5 7 7 4 3 2 6 3 3 8 7 4 3 6 2 6 7 2 4 5 4 3 10 9 11 11 12 6 2 2 5 7 9 6 2 7 14 5 8 7 11 12 13 11 9 4 5 5 4 12 14 14 10 8 5 7 4 6 14 15 16 19 21 18 11 14 14 18
11 10 8 6 6 4 7 11 3 1 2 1 0 0 2 2 2 2 1 5 1 6 2 1 3 2 3 1 1 5 1 0 4 0 1 3 5 3 3 2 3 9 7 5 5 6 10 9 2 2 3 4 4 4 9 10 13 3 6 13 18 17 12 10 11 8 5 6 4 4 12 7 1 3 4 6 5 4 7 11 18 19 8 6 13 17 20 6
10 10 8 7 5 3 6 3 0 1 1 0 0 1 2 3 2 1 2 1 8 3 2 3 1 0 1 0 2 2 4 3 0 1 1 2 2 2 1 0 2 5 3 4 6 4 7 2 4 7 4 3 5 6 10 7 11 4 9 12 15 12 9 8 10 4 6 1 2 2 2 18 5 2 5 6 6 11 15 11 16 8 9 9 12 14 13 14
11 10 8 7 5 2 2 1 0 1 3 1 2 2 1 3 1 1 2 3 5 3 3 1 1 1 1 0 1 1 3 3 1 2 1 2 2 0 3 5 1 0 2 2 3 5 1 2 4 3 4 5 3 7 5 11 5 7 3 5 7 6 6 5 3 5 8 1 4 2 5 6 23 2 8 10 9 13 14 15 7 10 11 13 13 12 11 12
10 9 8 7 7 6 2 1 1 1 1 1 4 4 3 3 2 0 1 5 4 1 1 1 0 1 1 1 5 0 0 1 1 0 0 3 1 2 1 5 7 6 3 3 8 3 6 2 3 3 2 5 9 8 3 10 7 6 1 6 1 5 5 2 3 4 2 5 10 1 2 4 9 4 1 3 5 10 16 15 12 10 6 8 13 12 9 8
9 10 8 7 7 7 2 1 2 2 1 5 5 5 4 3 1 1 2 3 2 2 2 2 3 1 1 1 1 1 0 1 1 1 3 0 2 1 1 5 3 3 2 7 10 2 2 1 7 8 7 8 7 1 9 11 5 4 4 5 4 4 3 2 2 1 3 2 12 4 3 3 17 13 5 2 1 9 9 10 10 11 7 8 10 10 11 8
9 9 8 6 4 4 2 2 4 1 6 6 6 5 3 2 1 1 1 7 2 2 1 0 1 1 1 2 1 3 1 1 2 1 3 2 3 2 0 2 2 0 4 2 4 8 2 1 6 5 7 5 3 1 5 10 6 3 2 1 3 3 2 3 4 2 3 4 10 10 7 5 10 4 6 6 6 4 3 7 6 6 8 9 6 6 11 11
13 9 8 6 3 3 4 3 2 6 6 6 7 4 3 3 2 3 10 2 3 1 1 1 1 3 2 1 2 1 0 1 0 1 1 1 1 2 1 1 3 2 1 3 7 4 1 1 1 4 1 2 2 1 2 1 1 2 2 1 6 5 5 3 4 2 3 8 6 8 11 8 6 5 2 3 2 3 5 9 12 11 11 13 11 10 10 8
13 10 7 6 2 5 5 3 3 6 7 7 4 2 1 2 1 9 5 2 1 1 1 1 1 1 0 2 1 0 2 0 1 1 4 3 3 4 4 6 4 1 4 3 6 3 2 7 3 3 3 10 3 1 5 3 3 4 2 1 1 6 6 3 2 1 5 9 2 3 5 3 14 19 6 12 16 18 10 7 11 11 10 12 10 10 8 9
14 12 8 6 4 3 2 3 7 6 7 4 3 2 1 2 11 8 3 1 3 1 2 4 1 1 0 2 2 1 1 2 1 1 4 0 2 5 3 4 3 3 7 0 2 4 7 1 0 4 1 5 8 6 2 1 3 7 6 4 4 1 3 4 5 2 5 6 4 5 4 8 11 11 7 14 19 11 6 5 6 7 8 8 9 7 7 11
14 10 3 4 7 6 3 7 6 9 7 1 3 3 2 5 11 5 5 6 6 2 3 1 1 1 1 4 2 3 1 3 4 2 2 1 1 2 4 5 4 3 0 1 3 3 5 8 6 5 4 4 10 10 13 7 8 10 4 10 9 7 4 7 3 9 8 7 1 3 5 8 1 6 1 7 8 9 8 5 5 5 6 6 7 9 8 9
15 7 4 1 4 4 6 6 10 9 6 4 1 5 7 15 4 2 1 2 2 1 0 0 0 1 5 0 2 3 4 3 2 3 2 5 5 4 5 5 4 4 1 1 4 2 9 10 6 3 1 8 10 5 5 6 3 2 3 3 2 9 4 7 6 7 9 9 3 1 7 4 8 6 9 10 9 11 12 14 6 6 4 3 5 6 8 9
7 1 4 2 3 4 7 6 7 7 8 5 4 6 15 9 3 2 3 2 0 1 1 1 3 1 5 3 2 1 3 4 2 3 2 4 3 3 3 3 7 14 8 8 4 4 0 4 2 2 4 6 4 2 4 5 2 3 6 6 9 3 4 4 4 4 4 3 13 5 8 9 6 11 17 15 10 10 6 5 5 7 2 3 4 6 8 9
4 4 2 3 3 4 8 7 7 6 5 9 8 14 11 4 4 2 3 3 1 4 1 3 3 5 2 2 1 0 2 2 4 4 4 2 4 6 3 6 5 6 11 10 6 4 7 6 1 5 2 4 1 1 1 3 4 6 3 7 1 2 3 4 6 0 5 9 9 7 15 13 6 13 2 5 8 7 5 2 1 3 3 2 3 6 8 8
3 2 3 3 3 6 9 9 8 4 4 5 13 16 3 3 1 3 1 2 1 1 1 3 6 2 5 2 3 3 1 4 2 4 3 4 5 5 3 2 5 10 14 4 4 3 2 7 3 4 5 4 1 1 6 5 1 7 8 1 0 4 3 2 1 3 4 9 6 6 11 15 10 17 12 20 20 17 3 3 4 6 8 2 3 5 6 8
1 1 4 3 2 11 9 10 9 8 5 8 9 14 3 7 2 2 5 4 1 2 2 3 6 3 1 2 2 0 2 4 0 1 1 3 6 2 4 4 1 6 5 4 3 1 3 4 3 2 2 1 1 2 8 4 2 3 2 3 1 1 7 8 6 3 1 13 9 13 10 12 7 9 11 15 20 22 4 5 7 10 9 8 11 12 14 15
1 1 4 1 2 5 9 10 5 5 5 13 11 10 2 1 3 3 1 2 3 2 4 3 3 7 3 7 2 7 2 3 2 5 4 4 6 3 3 2 1 2 3 4 4 1 3 4 11 4 1 2 4 6 12 9 7 2 2 4 1 3 2 1 1 5 8 10 11 11 11 6 5 4 10 17 17 16 5 4 5 6 10 11 12 14 13 14
1 0 3 2 4 7 9 6 5 10 9 2 5 7 4 4 2 2 3 2 2 3 4 2 4 5 3 2 6 1 1 2 3 4 4 4 4 7 2 4 2 1 1 2 1 2 0 3 10 4 6 9 11 5 7 5 7 6 8 8 10 7 6 9 13 4 7 8 11 10 17 4 5 6 11 15 11 6 8 6 7 11 15 17 15 13 12 13
4 4 2 2 6 10 9 8 5 2 2 7 9 3 5 3 3 5 3 1 4 3 1 1 3 4 1 4 3 1 1 3 5 4 3 11 4 8 3 1 2 4 3 3 5 6 5 2 4 9 10 13 12 11 5 5 2 3 7 7 8 3 3 6 13 9 7 8 4 9 11 10 6 8 8 8 12 13 20 18 14 14 14 15 15 15 13 12
4 5 1 3 6 8 7 7 5 4 6 3 3 4 1 3 3 1 1 1 2 2 1 2 3 3 3 6 2 4 4 6 5 7 3 4 8 11 5 6 3 2 3 3 2 2 4 1 0 11 6 8 7 8 4 4 3 1 3 2 2 5 8 10 10 5 7 4 7 8 11 1 1 5 8 5 11 15 15 15 13 12 12 13 15 16 17 17
2 2 1 1 4 2 6 10 10 10 7 5 5 6 1 2 2 4 5 2 3 1 4 2 3 5 6 4 3 7 4 9 5 14 8 5 7 6 5 6 7 1 2 5 3 3 1 3 6 10 7 4 3 4 6 2 2 2 4 5 6 5 4 9 5 3 8 5 11 10 13 5 2 4 5 17 15 15 17 15 14 15 13 14 15 14 15 15
2 2 2 1 2 3 8 6 8 5 6 8 8 11 10 4 5 10 7 5 2 4 1 3 3 1 4 1 3 3 3 11 5 2 2 2 4 2 6 8 6 1 3 2 1 2 3 3 3 7 7 9 7 9 5 4 2 1 1 3 4 4 9 3 5 3 8 4 12 10 10 7 6 3 13 16 16 13 12 12 12 12 13 13 13 14 15 15
1 0 2 1 2 4 5 3 1 5 6 6 8 9 8 11 5 2 6 7 8 3 4 2 1 1 1 2 5 5 8 3 7 3 2 2 2 2 2 6 4 2 3 6 3 1 2 2 4 10 13 14 12 7 3 6 8 10 5 3 6 7 3 4 4 8 12 13 13 12 15 15 12 7 11 12 11 14 15 14 13 12 13 13 12 12 12 11
2 1 1 1 2 4 7 3 7 4 4 3 6 2 12 12 7 4 9 4 3 6 2 6 5 4 4 5 8 8 6 8 7 10 7 11 3 3 6 4 4 8 1 4 3 2 1 5 8 11 12 12 11 14 13 11 13 12 12 15 11 7 6 8 10 13 9 12 15 8 14 13 13 5 8 8 9 8 8 10 11 11 10 10 11 11 15 17
1 3 2 3 2 4 6 8 6 9 9 6 4 3 7 7 4 6 1 2 1 1 3 2 7 10 11 10 5 6 4 9 5 10 7 2 3 5 4 4 5 4 6 1 1 2 2 7 8 10 13 10 11 14 8 5 4 7 8 10 11 11 12 13 16 15 9 12 17 15 17 18 9 7 6 7 9 9 6 8 7 6 6 9 10 12 12 14
2 2 1 2 2 3 1 2 5 3 4 11 7 7 10 13 14 8 3 2 0 2 6 8 5 9 9 8 7 9 7 10 9 8 5 2 4 1 2 2 1 4 6 3 3 1 1 5 7 8 11 7 8 7 6 8 8 9 10 10 11 12 15 17 18 14 14 17 17 17 15 17 5 3 4 2 3 6 6 4 2 4 8 8 10 11 10 12
2 0 3 3 1 4 3 2 1 1 5 5 8 10 13 11 13 12 4 5 7 6 1 11 11 9 6 8 10 11 11 13 9 10 2 4 2 2 2 4 3 3 3 2 2 4 2 6 6 1 6 8 8 8 8 9 9 11 10 10 10 14 16 15 14 16 17 15 14 16 15 3 5 3 2 1 2 4 4 7 4 4 6 9 10 12 10 11
1 1 0 2 3 3 2 0 3 2 3 4 10 7 7 9 11 3 3 1 3 3 0 6 4 5 1 5 8 11 1 2 2 1 1 0 4 1 1 3 5 1 3 1 0 2 3 4 6 7 9 12 9 11 9 9 10 11 12 13 17 19 18 12 16 3 6 13 11 8 11 3 1 3 3 3 1 4 4 8 4 4 6 7 8 10 12 13
1 2 1 1 3 2 3 0 0 1 8 6 5 5 3 3 4 5 5 2 7 7 4 4 5 3 3 3 6 3 2 4 3 2 1 2 3 5 3 4 6 3 1 2 3 3 2 2 3 6 9 10 12 11 9 5 10 13 14 17 17 16 16 17 6 5 1 2 4 10 3 5 3 2 3 5 3 6 4 5 6 3 2 4 9 11 11 11
Wind_Direction
7 4 1 360 -0 359 358 359 355 352 352 353 351 351 348 347 344 342 339 338 336 335 332 329 329 329 332 335 338 340 349 74 32 19 235 240 198 197 150 115 132 135 122 88 87 106 55 42 93 352 45 65 304 92 261 39 119 70 144 130 242 202 172 209 189 192 218 233 277 327 176 308 305 323 262 62 293 241 278 253 285 293 255 227 235 48 159 153
2 359 356 355 354 354 353 352 353 351 349 349 348 346 346 343 341 338 337 335 334 332 331 330 327 329 333 334 339 346 17 64 318 159 238 250 284 155 131 129 137 142 111 99 145 138 122 252 133 61 103 128 337 125 15 223 101 127 123 119 235 180 238 163 203 211 149 252 230 269 261 231 261 298 290 342 286 310 302 252 262 264 275 276 258 163 135 152
355 354 353 353 351 350 350 349 348 347 347 346 346 344 342 340 337 336 333 333 332 332 331 329 329 329 332 334 328 355 346 350 26 300 275 348 201 106 135 138 148 157 130 152 199 153 155 194 170 99 6 113 3 197 28 238 144 223 128 228 247 214 234 224 196 222 203 265 297 304 300 166 255 171 326 230 284 318 270 277 268 246 260 257 250 149 171 173
350 347 346 349 349 346 344 346 346 344 342 344 341 343 340 338 336 335 333 331 331 330 329 330 328 328 331 327 329 311 47 16 333 250 316 322 44 89 139 150 149 120 85 56 114 99 95 88 79 94 76 101 303 25 156 238 136 274 115 211 233 217 213 245 211 233 238 200 266 254 311 321 271 229 140 217 340 281 266 244 230 247 246 254 247 204 171 188
344 341 338 336 342 342 339 339 340 341 339 339 339 338 338 335 334 331 331 330 330 329 329 329 330 327 327 329 328 302 9 40 265 242 266 281 80 108 124 138 126 73 95 140 86 59 70 98 97 48 86 218 353 14 248 238 187 108 212 231 213 112 243 236 217 214 206 204 212 290 324 264 18 147 215 183 222 265 266 239 211 225 241 247 250 214 179 195
338 339 336 333 334 339 338 335 336 335 335 336 332 334 332 329 330 327 330 329 327 327 326 332 330 329 328 327 12 43 70 332 236 277 137 109 100 104 108 113 106 104 103 63 98 113 102 30 80 100 348 78 203 178 269 165 141 247 260 252 236 218 241 224 192 217 170 186 184 294 249 335 262 286 199 171 211 254 260 246 232 222 227 240 218 140 192 210
331 334 335 333 328 332 335 334 332 331 330 330 330 330 327 328 325 327 326 328 324 323 329 330 329 332 333 36 180 92 145 252 328 254 113 107 103 103 103 106 102 86 86 95 84 139 102 108 121 194 96 16 280 207 257 202 302 226 261 185 277 208 233 240 267 136 199 198 246 218 334 289 274 292 98 191 235 243 264 259 247 241 240 236 223 197 209 208
322 329 330 330 328 328 332 332 331 328 327 326 327 328 326 324 325 322 324 322 322 318 324 328 329 330 2 51 302 1 58 249 248 297 137 95 89 96 97 70 99 101 124 161 148 136 127 148 185 129 183 181 227 164 255 198 152 215 269 222 268 207 244 262 250 265 268 257 258 306 282 265 230 240 339 255 247 255 258 271 263 264 266 254 241 243 229 228
321 325 326 323 316 326 331 331 329 328 325 324 325 323 323 321 321 321 319 319 318 315 317 326 327 334 333 89 113 323 260 237 218 175 121 108 119 111 126 120 118 133 155 119 167 165 139 242 172 183 245 214 185 187 223 178 287 207 234 238 282 278 284 276 306 246 238 267 171 254 259 267 269 228 257 256 259 254 267 286 271 271 264 253 241 242 231 229
322 319 326 325 321 329 330 331 329 328 325 324 321 321 319 318 316 317 315 314 312 313 311 319 334 328 26 90 47 283 261 195 211 137 127 125 120 118 78 123 138 129 129 201 99 128 186 209 178 205 141 218 145 216 105 156 240 176 242 248 261 270 291 294 226 262 228 235 164 197 258 267 21 107 281 226 239 272 292 265 277 260 257 257 246 245 237 229
322 323 324 329 330 330 330 331 329 327 326 323 322 320 317 314 313 313 313 307 307 300 307 312 333 18 119 134 197 257 216 95 126 131 136 131 123 137 197 156 159 143 123 85 194 192 186 147 177 103 116 223 126 264 175 219 148 31 262 307 283 283 264 242 260 259 140 277 181 197 244 275 304 136 244 265 243 210 267 278 277 265 264 270 259 245 245 234
318 319 322 328 329 329 328 331 330 329 326 325 322 320 316 313 312 310 306 303 294 294 296 308 324 159 78 112 208 229 347 168 121 123 136 137 130 196 166 158 161 160 163 184 237 241 179 174 134 156 227 100 268 93 254 243 6 242 23 316 290 325 309 248 237 254 160 254 158 174 250 301 270 227 246 249 281 201 260 273 280 277 268 265 267 259 248 237
308 304 312 330 329 327 329 331 330 328 326 323 321 319 316 314 312 307 300 292 285 276 281 87 88 207 86 304 235 227 339 142 117 110 94 66 93 55 95 151 157 152 176 169 191 218 190 144 146 173 220 147 185 247 143 82 295 342 75 223 315 324 295 306 161 18 153 249 153 144 284 212 250 253 260 265 278 263 268 268 270 269 273 272 271 265 260 257
290 295 319 329 326 326 329 331 329 326 324 321 319 318 317 315 312 303 291 272 263 257 95 159 114 97 98 242 268 241 145 121 101 107 164 146 115 -0 54 42 83 81 166 137 170 123 143 155 138 183 100 191 261 290 7 341 16 268 248 98 253 352 268 252 131 148 330 194 177 145 250 256 262 260 270 277 233 247 256 264 268 269 265 271 272 271 265 261
294 301 336 325 326 324 327 329 328 325 322 320 318 319 319 316 314 308 283 261 226 202 158 111 3 83 78 267 242 292 151 138 173 226 184 139 143 76 73 55 52 42 108 122 143 123 129 110 94 108 253 273 0 324 293 18 357 334 353 270 330 199 283 290 271 203 252 322 254 151 252 253 252 262 264 288 324 210 251 260 267 272 265 263 268 273 274 270
302 316 315 327 324 323 325 326 326 323 319 316 318 317 316 318 334 338 251 133 145 142 155 73 20 104 74 293 233 137 106 211 262 233 236 139 163 173 149 120 109 39 37 23 71 103 53 115 151 193 251 358 212 147 5 1 329 346 199 280 267 221 261 331 293 203 229 133 273 179 248 290 276 255 270 283 279 244 256 265 264 271 275 268 263 263 267 276
299 297 319 322 319 322 327 327 326 323 319 316 319 317 322 358 43 44 98 122 105 99 177 167 161 87 212 239 172 301 249 233 149 42 35 20 133 142 111 74 66 78 58 58 37 85 352 112 320 25 30 181 147 101 315 1 277 272 185 230 199 252 297 281 305 288 151 184 238 246 252 244 262 279 292 291 297 289 261 267 270 270 274 275 273 266 261 262
281 293 297 296 310 325 326 328 325 324 320 319 319 315 312 125 97 62 51 44 68 140 20 110 127 49 279 10 272 238 18 296 36 141 70 298 120 102 100 109 48 100 99 42 4 144 309 187 41 195 355 53 147 124 165 249 219 238 244 273 280 264 239 254 308 263 352 195 216 299 253 261 268 278 276 277 270 282 280 271 268 270 270 274 271 267 263 262
274 278 303 306 316 313 321 325 325 325 323 319 322 306 36 20 358 136 84 345 97 15 9 232 124 148 211 222 290 12 136 144 130 70 40 103 39 100 73 87 98 122 141 102 270 161 352 65 33 59 223 222 225 192 204 234 227 240 235 262 295 287 249 233 239 277 248 279 291 278 269 274 275 271 270 272 270 247 269 279 276 268 266 270 270 267 267 262
279 287 295 304 311 311 326 326 325 326 325 330 351 358 17 18 4 308 341 353 235 197 206 209 210 300 323 294 248 278 290 66 145 353 96 281 119 90 37 86 35 59 120 195 203 205 121 159 168 198 219 221 227 205 217 235 285 335 302 247 260 265 280 264 271 260 250 294 237 261 273 275 274 273 275 269 276 271 257 271 273 271 272 265 269 270 264 261
277 297 300 307 309 323 323 326 325 325 326 331 332 50 42 309 357 307 313 257 248 260 254 247 209 216 237 83 304 15 79 296 69 164 214 132 118 116 228 83 88 186 228 172 152 278 79 179 234 224 223 220 229 253 304 319 317 273 281 274 273 240 278 259 276 274 247 247 250 237 274 275 277 281 276 272 267 266 257 252 271 280 272 264 259 264 267 265
254 264 290 291 303 315 319 324 324 324 330 73 55 72 177 230 223 241 80 306 319 257 241 249 31 273 277 229 233 149 92 348 310 82 278 137 173 158 273 137 157 208 134 120 17 101 157 193 227 232 232 1 38 30 180 223 258 261 246 279 292 264 255 273 255 268 273 186 281 266 270 270 275 272 267 256 252 254 261 253 250 269 277 270 259 255 276 291
248 250 257 292 299 307 316 319 320 337 11 31 40 72 94 267 88 245 80 265 264 262 253 250 235 232 262 233 215 114 222 219 253 186 204 149 53 219 143 152 196 134 183 191 199 155 256 264 239 240 218 243 287 262 252 297 251 229 247 272 259 264 296 299 183 317 328 187 301 288 291 287 267 253 253 254 261 270 271 257 245 243 256 260 261 296 274 279
253 249 240 249 276 301 309 318 319 34 28 124 113 131 214 142 169 37 41 247 276 306 222 230 218 192 227 206 228 161 187 253 147 267 257 139 157 190 122 171 148 157 217 197 208 200 219 225 218 130 189 189 231 245 256 256 264 203 214 234 264 262 243 229 273 342 316 280 250 294 287 288 231 247 272 297 270 243 257 260 257 246 244 265 313 283 261 255
249 246 238 236 250 280 306 319 26 354 166 80 71 222 142 162 124 122 52 306 319 271 286 312 155 240 218 27 12 152 253 96 228 227 272 126 143 97 230 189 122 231 213 193 226 262 278 264 124 96 125 166 188 255 233 223 260 259 212 208 234 250 270 263 279 345 6 323 329 37 330 309 284 183 247 281 341 287 246 242 251 254 280 285 270 269 273 300
252 247 236 223 227 285 298 338 350 149 34 37 222 164 156 99 103 102 97 351 284 265 358 248 130 277 85 69 18 223 110 237 101 236 28 229 209 154 73 236 150 250 190 143 206 206 222 299 171 227 171 140 177 213 241 174 243 293 264 207 234 244 250 268 283 359 294 227 321 47 113 294 149 225 232 255 245 260 263 244 256 291 281 271 260 269 288 290
254 249 237 218 196 92 17 271 189 141 10 340 154 130 161 90 203 118 359 301 312 199 151 278 56 264 31 327 101 116 121 270 330 36 40 328 183 308 160 239 9 94 160 158 31 270 172 311 77 76 128 168 175 256 242 162 213 257 254 167 213 237 238 248 233 202 253 279 273 182 169 248 297 205 211 216 219 249 266 268 279 269 268 269 274 272 271 283
263 258 248 224 185 147 179 116 26 350 218 130 123 109 78 90 63 14 91 322 297 61 89 271 192 338 80 317 60 151 207 326 49 313 335 299 18 345 176 212 187 184 187 110 235 250 161 190 155 124 134 140 203 216 159 162 157 221 271 141 194 213 229 151 169 198 250 12 304 232 122 296 258 256 173 127 235 260 259 276 288 281 277 277 275 283 290 287
274 270 262 239 195 164 96 154 141 217 162 144 116 106 107 99 85 89 108 245 240 83 271 73 300 56 359 317 46 59 316 19 143 276 308 15 33 138 269 244 179 190 240 175 229 245 291 194 205 164 142 213 219 216 163 158 194 270 123 83 73 75 71 141 135 143 332 27 280 174 176 224 279 295 163 358 217 256 279 285 280 282 283 281 295 303 300 289
302 273 264 239 161 155 104 78 219 172 125 123 118 117 106 53 24 296 303 238 34 300 80 229 89 255 41 102 306 4 316 331 115 326 28 144 326 37 336 145 125 192 256 347 265 238 220 333 153 125 199 216 163 192 164 186 185 117 84 52 356 36 35 24 70 94 44 279 261 167 200 183 283 287 179 129 213 193 290 314 299 294 288 290 285 294 299 304
344 315 269 188 177 192 134 245 212 135 136 117 119 110 63 34 128 165 237 224 359 235 12 29 234 3 105 128 258 325 115 328 340 80 79 6 357 46 2 301 60 44 24 346 276 277 202 140 169 253 113 122 107 131 45 3 35 51 45 98 16 321 22 39 344 58 177 267 261 190 182 187 211 303 327 239 266 242 203 263 277 297 304 304 312 313 310 316
342 328 282 187 224 145 171 239 166 143 134 146 129 63 87 260 64 217 220 350 284 276 136 245 21 96 49 4 58 245 185 346 259 128 166 182 154 158 201 183 169 228 305 208 259 24 260 204 244 279 233 172 157 200 307 48 80 119 131 46 286 281 19 322 30 337 182 216 252 211 151 339 244 253 288 313 303 288 259 212 258 261 277 294 305 300 309 315
335 324 291 213 184 190 261 97 123 139 127 147 76 45 85 157 249 199 234 55 264 120 264 89 164 117 202 65 270 253 328 188 252 226 102 345 140 264 270 210 213 192 248 271 291 355 283 272 107 231 330 204 139 159 268 234 188 127 148 155 95 258 251 249 263 231 308 290 251 167 205 237 268 290 235 249 258 265 301 251 229 247 264 283 287 309 322 313
331 325 267 189 195 201 122 140 143 141 122 104 86 55 91 226 238 65 173 182 222 16 81 100 39 55 115 194 247 153 263 241 143 220 147 206 98 257 288 251 166 283 122 311 267 202 317 305 265 156 244 188 170 190 196 181 163 191 145 157 184 165 185 257 202 258 258 247 302 259 115 233 201 230 248 236 263 288 275 266 264 267 262 271 294 299 307 299
323 296 247 197 200 183 150 163 161 157 123 115 117 173 207 238 255 172 237 280 298 324 180 9 88 50 297 295 284 257 195 306 129 107 200 144 231 191 200 219 229 121 201 54 255 74 208 246 260 232 315 145 179 219 101 99 80 211 153 75 79 232 129 241 226 241 264 283 310 227 209 206 231 298 296 263 264 275 272 274 271 273 282 332 326 326 319 318
328 357 181 201 175 182 167 170 158 162 147 166 179 221 224 214 227 174 223 155 334 145 271 18 104 218 242 292 299 241 290 181 277 117 247 192 215 210 228 211 177 186 162 190 185 243 54 281 271 9 62 178 207 148 206 140 222 221 102 204 219 144 137 294 302 260 312 318 260 248 283 269 291 287 279 288 300 286 306 283 241 207 245 9 330 325 328 319
354 327 232 180 203 176 165 150 153 161 183 176 204 235 231 277 184 154 240 174 217 145 74 240 245 191 214 254 233 126 242 95 244 147 264 167 304 203 235 256 178 205 204 177 273 200 237 259 187 140 242 258 193 222 294 274 130 102 178 234 91 142 117 188 254 327 228 246 251 207 259 277 306 284 282 351 305 314 337 325 285 306 289 320 310 311 313 313
326 287 279 238 213 161 154 154 145 153 193 220 218 228 81 219 271 194 122 108 53 35 122 186 274 148 267 191 293 175 275 154 253 127 243 181 262 139 123 242 218 191 217 246 219 279 109 272 258 255 209 249 30 125 309 267 193 206 203 340 275 263 282 262 108 270 237 241 265 200 241 255 246 268 291 290 288 281 285 305 334 295 294 294 295 281 295 331
261 284 293 239 207 153 153 154 159 155 199 221 231 248 197 235 104 167 210 144 118 110 206 241 226 294 165 241 221 143 206 188 84 237 46 253 213 181 196 178 301 209 252 160 254 243 16 290 271 264 239 190 16 139 252 211 350 70 69 327 68 100 238 253 191 188 223 270 273 261 224 253 200 243 256 268 274 284 290 287 293 297 303 8 343 354 355 0
147 226 249 321 61 134 139 139 132 166 191 224 225 232 108 33 260 291 292 206 266 151 249 221 218 244 256 243 173 257 275 187 196 240 187 273 261 249 230 347 197 3 156 228 215 95 241 190 264 184 57 73 264 185 232 215 219 208 136 225 204 200 226 172 320 241 249 265 255 277 261 239 231 234 252 260 266 286 311 242 266 310 354 357 16 18 20 21
124 180 267 81 122 135 123 108 174 205 220 297 277 259 299 273 8 309 339 253 230 296 216 177 177 219 184 278 266 180 258 210 200 227 211 284 236 293 247 201 202 119 71 37 219 234 0 216 239 214 258 233 243 212 211 195 192 201 184 204 202 219 271 266 259 186 233 230 253 246 257 227 255 232 248 263 282 331 357 356 356 13 23 20 27 36 28 24
172 208 257 98 159 148 133 180 221 193 227 217 226 218 252 4 277 262 248 224 197 256 11 194 242 222 159 251 188 222 183 230 217 235 218 243 203 229 261 84 176 158 135 193 200 232 191 181 219 236 224 243 251 260 226 210 167 193 168 237 205 210 192 234 262 245 255 233 266 264 280 250 245 284 292 311 317 353 32 36 40 40 27 19 13 13 19 24
204 215 6 151 190 172 156 228 222 216 228 255 2 277 201 272 222 244 340 287 251 214 265 241 204 216 245 237 186 240 196 255 183 242 222 233 239 226 229 235 230 338 354 299 307 286 60 132 0 260 262 279 293 287 315 142 130 19 288 177 142 191 200 226 240 260 269 306 286 264 248 299 125 246 269 330 14 43 39 28 23 32 25 15 18 14 10 9
319 307 16 335 231 300 202 212 216 221 234 266 254 263 204 212 263 272 238 225 182 287 217 214 320 230 253 213 203 244 170 280 209 240 255 221 259 260 321 326 13 273 233 251 278 272 319 275 262 277 278 288 294 332 302 5 82 199 217 241 225 251 295 267 281 353 273 198 251 262 263 261 279 330 353 17 17 39 35 28 23 23 20 16 11 11 9 6
351 300 230 265 235 222 220 216 236 236 235 241 241 252 256 250 214 239 254 254 228 213 156 268 231 14 247 205 257 263 225 232 283 270 222 217 236 353 27 37 4 85 46 319 214 325 271 197 198 242 237 251 253 250 238 242 232 227 286 252 261 201 241 294 296 234 253 178 222 242 267 258 276 347 20 14 5 12 54 36 26 25 16 13 11 7 8 7
192 210 287 85 267 258 255 297 343 226 239 246 242 242 247 256 260 196 186 254 211 230 240 269 341 12 300 282 255 236 252 210 224 272 307 268 279 335 99 9 60 26 8 84 23 54 218 309 242 246 252 258 265 277 289 310 292 285 272 246 279 284 238 219 273 263 258 272 265 262 273 286 290 328 22 10 12 7 1 18 26 17 11 9 7 8 7 4
327 126 186 271 318 271 264 224 244 241 232 183 248 186 240 242 255 285 189 265 244 203 223 214 220 204 243 207 238 259 240 270 225 253 238 259 231 248 314 18 99 22 272 108 346 82 257 239 216 245 245 258 267 271 278 281 275 268 274 277 282 267 268 268 249 257 270 284 257 261 266 277 279 7 17 16 17 -0 12 15 17 15 11 8 3 358 2 1
101 254 104 237 202 222 209 247 238 235 247 286 270 301 274 277 244 245 356 255 17 41 187 336 239 219 226 229 257 254 258 254 255 253 259 263 317 326 346 347 61 340 48 9 308 142 214 252 264 269 269 266 270 276 280 271 249 265 270 280 281 282 277 264 260 262 267 261 277 284 286 285 316 67 16 24 14 347 359 25 8 5 356 4 5 7 4 358
130 308 226 311 129 266 309 302 356 292 264 237 255 255 264 254 258 246 206 311 88 267 206 255 214 233 220 232 216 249 230 266 249 250 240 234 215 17 298 332 200 58 41 28 345 199 228 250 252 266 284 281 278 273 278 272 272 264 256 249 248 257 262 263 269 274 265 261 267 277 281 283 68 345 9 16 5 354 329 352 339 7 7 1 1 2 0 355
295 134 296 23 42 307 301 335 325 359 249 229 243 215 242 245 261 267 255 224 253 255 150 239 239 241 211 217 211 227 220 236 252 258 220 126 303 164 229 233 265 352 38 23 329 294 211 273 10 318 279 268 269 273 273 274 280 281 284 286 279 270 267 266 277 269 271 274 268 265 270 280 107 103 282 41 263 350 350 326 350 340 354 0 357 355 350 345
246 46 291 20 324 226 91 316 246 277 272 235 240 247 253 248 253 302 274 29 227 262 298 272 317 270 185 235 210 226 200 143 87 326 101 160 243 312 104 267 102 296 330 285 241 307 338 280 334 320 304 284 285 283 286 297 291 281 278 276 272 268 273 271 262 290 260 271 284 305 280 217 345 98 286 262 44 331 1 323 309 329 341 353 353 344 343 336
68 297 82 241 267 254 134 149 139 95 239 243 252 266 267 318 23 320 300 105 58 79 74 50 2 41 303 329 292 346 39 54 59 60 318 284 258 277 261 239 293 270 279 183 220 273 223 296 316 298 281 266 275 283 305 327 306 280 255 248 254 260 256 264 267 75 250 158 222 258 287 90 229 297 356 313 1 320 318 324 293 262 320 325 346 336 330 324